#timestamp,LO_Frequency,Hit,StdDev 
1556218815.6,286047003.5,N
1556218835.4,286047004.8,N
1556218855.2,286047011.9,Y
1556218875.1,286047005.3,P
1556218876.0,286047005.3,N
1556218895.8,286047006.6,P
1556218915.7,286047008.3,Y
1556218935.5,286047003.2,P
1556218955.3,286047003.7,P
1556218975.2,286047005.8,P
1556218995.0,286047001.8,N
1556218995.9,286047001.8,N
1556219015.8,286047001.6,N
1556219035.6,286047002.6,N
1556219055.4,286047000.5,N
1556219075.3,286046999.9,N
1556219095.1,286047001.0,N
1556219115.8,286046998.6,N
1556219135.7,286046999.2,N
1556219155.5,286046999.6,N
1556219175.4,286046997.8,N
1556219195.2,286046995.2,N
1556219215.0,286046997.7,N
1556219215.9,286046997.7,N
1556219235.8,286046997.9,N
1556219255.6,286046995.4,N
1556219275.4,286046997.7,N
1556219295.3,286046995.5,N
1556219315.1,286046996.1,N
1556219335.9,286046996.4,N
1556219355.7,286046993.4,N
1556219375.5,286046994.2,N
1556219395.4,286046994.8,N
1556219415.2,286046992.2,N
1556219435.0,286046994.8,N
1556219435.9,286046994.8,N
1556219455.8,286046991.9,N
1556219475.6,286046993.7,N
1556219495.5,286046994.2,N
1556219515.3,286046990.4,N
1556219535.1,286046990.6,N
1556219555.9,286046992.4,N
1556219575.7,286046991.9,N
1556219595.5,286046992.8,N
1556219615.4,286046990.5,Y
1556219635.2,286046995.3,P
1556219655.1,286046995.3,P
1556219656.0,286046995.3,P
1556219675.8,286046997.5,Y
1556219695.6,286047002.0,P
1556219715.5,286047002.6,N
1556219735.3,286046999.9,N
1556219755.1,286046998.1,N
1556219775.9,286047000.9,N
1556219795.7,286046999.4,N
1556219815.6,286046999.2,N
1556219835.4,286046998.5,N
1556219855.2,286046999.6,N
1556219875.1,286046998.5,N
1556219876.0,286046998.5,N
1556219895.8,286046998.6,N
1556219915.6,286046998.5,N
1556219935.5,286047000.7,N
1556219955.3,286047001.0,N
1556219975.2,286046998.2,N
1556219995.9,286046998.5,N
1556220015.7,286046999.6,N
1556220035.6,286046999.0,N
1556220055.4,286046998.2,N
1556220075.2,286046998.5,N
1556220095.1,286046996.5,N
1556220096.0,286046996.5,N
1556220115.8,286046997.6,N
1556220135.7,286046998.3,N
1556220155.5,286046999.8,N
1556220175.3,286047002.2,N
1556220195.2,286047001.8,N
1556220215.0,286047000.2,N
1556220215.9,286047000.2,N
1556220235.7,286047000.1,N
1556220255.6,286046999.7,N
1556220275.4,286047000.5,N
1556220295.3,286046999.7,N
1556220315.1,286047001.5,N
1556220316.0,286047001.5,N
1556220335.8,286047001.9,N
1556220355.7,286047002.0,N
1556220375.5,286047001.4,N
1556220395.3,286047004.1,N
1556220415.2,286047005.5,Y
1556220435.0,286047003.7,P
1556220435.9,286047003.7,N
1556220455.8,286047005.5,N
1556220475.6,286047004.1,N
1556220495.4,286047004.0,N
1556220515.3,286047003.8,N
1556220535.1,286047001.8,N
1556220555.9,286047002.7,N
1556220575.7,286047002.0,N
1556220595.5,286047000.8,N
1556220615.4,286047000.3,N
1556220635.2,286046998.9,N
1556220655.0,286046996.7,N
1556220655.9,286046996.7,N
1556220675.8,286046997.0,N
1556220695.6,286046995.5,N
1556220715.5,286046993.7,N
1556220735.3,286046996.1,N
1556220755.1,286046997.9,N
1556220775.9,286046998.5,N
1556220795.7,286047000.6,N
1556220815.5,286047000.1,N
1556220835.4,286047002.8,N
1556220855.2,286047001.9,N
1556220875.0,286047002.5,N
1556220876.0,286047002.5,N
1556220895.8,286046998.5,N
1556220915.6,286046997.5,N
1556220935.5,286046998.6,N
1556220955.3,286046997.0,N
1556220975.1,286046994.9,N
1556220995.9,286046996.5,N
1556221015.7,286046996.5,N
1556221035.6,286047000.5,N
1556221055.4,286046998.1,N
1556221075.2,286047001.1,N
1556221095.1,286047001.0,N
1556221096.0,286047001.0,N
1556221115.8,286046997.7,N
1556221135.6,286046998.4,N
1556221155.5,286046997.8,N
1556221175.3,286046997.1,N
1556221195.2,286046999.5,N
1556221215.9,286047000.3,N
1556221235.7,286047000.9,N
1556221255.6,286047000.2,N
1556221275.4,286047000.8,N
1556221295.3,286046999.9,N
1556221315.1,286047002.3,N
1556221316.0,286047002.3,N
1556221335.8,286047002.1,N
1556221355.7,286047000.4,N
1556221375.5,286047000.8,N
1556221395.3,286046998.2,N
1556221415.2,286047000.9,N
1556221435.0,286047001.1,N
1556221435.9,286047001.1,N
1556221455.8,286047002.4,N
1556221475.6,286047002.7,N
1556221495.4,286047001.0,N
1556221515.3,286047004.0,N
1556221535.1,286047000.4,N
1556221555.8,286047000.1,N
1556221575.7,286046998.5,N
1556221595.5,286046999.9,N
1556221615.4,286047000.7,N
1556221635.2,286047002.5,N
1556221655.0,286046998.1,N
1556221655.9,286046998.1,N
1556221675.8,286047002.5,N
1556221695.6,286047002.4,N
1556221715.4,286047002.4,N
1556221735.3,286047003.7,N
1556221755.1,286047001.8,N
1556221775.9,286047003.7,N
1556221795.7,286047002.9,N
1556221815.5,286047002.5,N
1556221835.4,286047002.6,N
1556221855.2,286047001.0,N
1556221875.0,286046998.6,N
1556221875.9,286046998.6,N
1556221895.8,286047000.6,N
1556221915.6,286047001.5,N
1556221935.5,286047000.1,N
1556221955.3,286047001.9,N
1556221975.1,286047000.3,N
1556221995.9,286046998.6,N
1556222015.7,286046999.4,N
1556222035.5,286046999.4,N
1556222055.4,286046997.0,N
1556222075.2,286046996.9,N
1556222095.1,286046998.8,N
1556222096.0,286046998.8,N
1556222115.8,286046999.9,N
1556222135.6,286047001.0,N
1556222155.5,286047001.7,N
1556222175.3,286047003.5,N
1556222195.1,286047002.0,N
1556222215.9,286047002.5,N
1556222235.7,286047001.9,N
1556222255.6,286047001.4,N
1556222275.4,286047000.4,N
1556222295.2,286047000.3,N
1556222315.1,286047000.8,N
1556222316.0,286047000.8,N
1556222335.8,286046998.1,N
1556222355.6,286047000.8,N
1556222375.5,286047001.9,N
1556222395.3,286047003.7,N
